Regional Weather Roundup
Issued by NWS State College, PA

Home | Current Version | Previous Version | Graphics & Text | Print | Product List | Glossary On
Versions: 1 2 3 4 5 6 7 8 9 10 11 12 13 14 15 16 17 18 19 20 21 22 23 24 25 26 27 28 29 30 31 32 33 34 35 36 37 38 39 40 41 42 43 44 45 46 47 48 49 50
000
ASUS41 KCTP 311210
RWRCTP

REGIONAL WEATHER ROUNDUP
NATIONAL WEATHER SERVICE STATE COLLEGE PA
700 AM EST SAT JAN 31 2015

Note: "fair" indicates few or no clouds below 12,000 feet with no
significant weather and/or obstructions to visibility.

* = STATION THAT DOES NOT REPORT PRECIPITATION /E.G. RAIN...SNOW...ETC/
    THUNDER OR FOG.

PAZ002>004-007>009-013>016-020>023-029>032-311300-
WESTERN PENNSYLVANIA

CITY           SKY/WX    TMP DP  RH WIND       PRES   REMARKS
ERIE           CLOUDY    11   2  67 S7        30.34S WCI   0
MEADVILLE      CLOUDY     6   2  83 S6        30.28S WCI  -4
FRANKLIN*      CLOUDY     7   1  78 SW5       30.29S WCI  -2
NEW CASTLE     CLOUDY     2  -1  87 CALM      30.36R
BEAVER COUNTY  MOCLDY     7   3  85 S3        30.32
BUTLER*        CLOUDY     7   3  85 CALM      30.33F
PITTSBURGH INT CLOUDY     7   3  84 S3        30.33F
PITTSBURGH     CLOUDY    10   2  69 SW5       30.33S WCI   2
INDIANA*       CLOUDY     5   1  85 W5        30.35R WCI  -4
LATROBE        PTCLDY     5   3  92 SW6       30.37R WCI  -6
WASHINGTON CO* PTCLDY     0  -6  78 CALM      30.34F
$$

PAZ004>006-010>012-017>019-024>028-033>037-041-042-045-046-049>053-311300-
CENTRAL PENNSYLVANIA

CITY           SKY/WX    TMP DP  RH WIND       PRES   REMARKS
BRADFORD       FLURRIES   7   2  80 W7        30.17R WCI  -5
DUBOIS         CLOUDY     9   3  77 W9        30.23R WCI  -4
CLEARFIELD     CLOUDY    10   2  69 W7        30.25R WCI  -1
JOHNSTOWN      MIX PCPN   4   0  83 W14G21    30.19R WCI -14
ALTOONA        CLOUDY    23   1  38 NW10      30.26R WCI  12
STATE COLLEGE  CLOUDY    10   1  67 NW12      30.28R WCI  -4
WILLIAMSPORT   PTCLDY     7  -4  60 W14       30.30R WCI -10
SELINSGROVE    CLEAR     10  -1  61 NW13      30.30R WCI  -5
FT INDIANTOWN  CLEAR     11  -3  54 W9G20     30.25R WCI  -2
CAPITAL CITY   CLEAR     13   0  56 NW14      30.28R WCI  -2
HARRISBURG     CLEAR     13   0  56 NW17G25   30.27R WCI  -4
YORK           CLEAR      7  -3  64 NW7       30.26R WCI  -5
$$

PAZ038>040-043-044-047-048-054-055-060>062-067>071-311300-
EASTERN PENNSYLVANIA

CITY           SKY/WX    TMP DP  RH WIND       PRES   REMARKS
SCRANTON       CLOUDY     7  -3  64 N8        30.19R WCI  -6
MOUNT POCONO   MOCLDY     2  -5  72 NW25G35   29.98R WCI -22
ALLENTOWN      CLEAR     11  -5  48 NW10G20   30.18R WCI  -3
QUAKERTOWN*    FAIR      10  -2  56 NW6G17    30.16R WCI   1
READING        CLEAR     11  -3  53 NW22      30.22R WCI  -8
LANCASTER      CLEAR     11  -4  51 NW13      30.25R WCI  -4
COATESVILLE    SUNNY     12   0  57 NW16G22   30.18R WCI  -4
POTTSTOWN      CLEAR     10  -3  55 W7        30.20R WCI  -1
BLUE BELL      FAIR      14   0  52 NW7G17    30.16S WCI   4
DOYLESTOWN     CLEAR      9  -3  58 VRB7G16   30.15R WCI  -2
WILLOW GROVE   NOT AVBL
NORTH PHILA    CLEAR     14  -4  44 NW14G21   30.20R WCI  -1
PHILADELPHIA   CLEAR     15  -3  44 NW15      30.22R WCI   0
$$



USA.gov is the U.S. government's official web portal to all federal, state and local government web resources and services.